TimeMST,TemperatureF,Dew PointF,Humidity,Sea Level PressureIn,VisibilityMPH,Wind Direction,Wind SpeedMPH,Gust SpeedMPH,PrecipitationIn,Events,Conditions,WindDirDegrees,DateUTC
12:51 AM,32.0,5.0,32,30.08,10.0,Calm,Calm,-,N/A,,Clear,0,2012-12-12 07:51:00
1:51 AM,34.0,5.0,30,30.08,10.0,Calm,Calm,-,N/A,,Clear,0,2012-12-12 08:51:00
2:51 AM,27.0,1.0,33,30.09,10.0,ENE,3.5,-,N/A,,Clear,60,2012-12-12 09:51:00
3:51 AM,30.0,3.0,32,30.07,10.0,Calm,Calm,-,N/A,,Clear,0,2012-12-12 10:51:00
4:51 AM,23.0,-0.0,37,30.10,10.0,East,3.5,-,N/A,,Clear,90,2012-12-12 11:51:00
5:51 AM,24.1,-0.0,35,30.12,10.0,East,3.5,-,N/A,,Clear,80,2012-12-12 12:51:00
6:51 AM,19.9,-0.9,40,30.16,10.0,East,4.6,-,N/A,,Clear,100,2012-12-12 13:51:00
7:51 AM,30.0,1.0,29,30.15,10.0,Calm,Calm,-,N/A,,Clear,0,2012-12-12 14:51:00
8:51 AM,37.9,3.0,23,30.15,10.0,Calm,Calm,-,N/A,,Clear,0,2012-12-12 15:51:00
9:51 AM,42.1,5.0,22,30.14,10.0,SSW,3.5,-,N/A,,Clear,200,2012-12-12 16:51:00
10:51 AM,46.9,6.1,19,30.13,10.0,SSE,5.8,-,N/A,,Clear,150,2012-12-12 17:51:00
11:51 AM,51.1,7.0,17,30.07,10.0,South,4.6,-,N/A,,Clear,190,2012-12-12 18:51:00
12:51 PM,55.0,8.1,15,30.03,10.0,Variable,5.8,-,N/A,,Clear,0,2012-12-12 19:51:00
1:51 PM,57.0,9.0,15,30.00,10.0,South,4.6,-,N/A,,Clear,170,2012-12-12 20:51:00
2:51 PM,59.0,10.0,14,30.00,10.0,SSE,4.6,-,N/A,,Clear,150,2012-12-12 21:51:00
3:51 PM,60.1,10.9,14,29.99,10.0,SW,3.5,-,N/A,,Clear,220,2012-12-12 22:51:00
4:51 PM,57.9,12.9,17,30.01,10.0,Calm,Calm,-,N/A,,Clear,0,2012-12-12 23:51:00
5:51 PM,55.9,12.9,18,30.03,10.0,Calm,Calm,-,N/A,,Clear,0,2012-12-13 00:51:00
6:51 PM,51.8,12.2,21,30.08,10.0,Calm,Calm,-,N/A,,Clear,0,2012-12-13 01:51:00
7:51 PM,45.0,10.9,25,30.06,10.0,ESE,6.9,-,N/A,,Clear,120,2012-12-13 02:51:00
8:51 PM,44.6,10.4,25,30.09,10.0,Calm,Calm,-,N/A,,Clear,0,2012-12-13 03:51:00
9:51 PM,42.1,10.0,27,30.05,10.0,Calm,Calm,-,N/A,,Clear,0,2012-12-13 04:51:00
10:51 PM,41.0,10.9,29,30.04,10.0,ESE,3.5,-,N/A,,Clear,120,2012-12-13 05:51:00
11:51 PM,41.0,12.0,31,30.03,10.0,South,4.6,-,N/A,,Clear,180,2012-12-13 06:51:00